Williston, ND

2:24 AM CST on February 14, 2016 (GMT -0600)
Sloulin International

Weather History for KISN - October, 2011

Change the Weather History Date:

Tuesday, October 11, 2011

  Actual Average Record
Temperature  
Mean Temperature 52 °F 45 °F  
Max Temperature 68 °F 59 °F 85 °F (1934)
Min Temperature 36 °F 32 °F 17 °F (1907)
Degree Days  
Heating Degree Days 13 20  
Month to date heating degree days 81 193  
Since 1 July heating degree days 267 539  
Cooling Degree Days 0 0  
Month to date cooling degree days 10 0  
Year to date cooling degree days 452 455  
Growing Degree Days 1 (Base 50)    
Moisture  
Dew Point 41 °F    
Average Humidity 71    
Maximum Humidity 100    
Minimum Humidity 42    
Precipitation  
Precipitation 0.00 in 0.03 in 1.74 in (2013)
Month to date precipitation 0.64 0.35  
Year to date precipitation 18.45 12.53  
Snow  
Snow 0.00 in 0.10 in 1.50 in (1928)
Month to date snowfall 0.0 0.6  
Since 1 July snowfall T 0.8  
Snow Depth 0.00 in    
Sea Level Pressure  
Sea Level Pressure 29.64 in    
Wind  
Wind Speed 4 mph (SW)    
Max Wind Speed 13 mph    
Max Gust Speed 17 mph    
Visibility 10 miles    
Events      
T = Trace of Precipitation, MM = Missing Value Source: NWS Daily Summary

Daily Weather History Graph

Daily Weather History Graph

Search for Another Location

Airport or City:

Trip Planner

Search our weather history database for the weather conditions in past years. The results will help you decide how hot, cold, wet, or windy it might be!

Date:

Astronomy

Oct. 11, 2011 Rise Set
Actual Time 8:07 AM CDT 7:13 PM CDT
Civil Twilight 7:36 AM CDT 7:45 PM CDT
Nautical Twilight 7:00 AM CDT 8:21 PM CDT
Astronomical Twilight 6:24 AM CDT 8:57 PM CDT
Moon 6:41 PM CDT (10/11) 7:51 AM CDT (10/11)
Length of Visible Light 12h 08m
Length of Day
11h 06m
Full, 100% of the Moon is Illuminated
Oct 11
Full
Oct 11
Full
Oct 19
Last Quarter
Oct 26
New
Nov 2
First Quarter

Hourly Weather History & Observations

Time (CDT) Temp. Windchill Dew Point Humidity Pressure Visibility Wind Dir Wind Speed Gust Speed Precip Events Conditions
12:52 AM 39.0 °F - 37.9 °F 96% 29.67 in 10.0 mi Calm Calm - N/A   Clear
1:52 AM 37.4 °F - 37.4 °F 100% 29.63 in 10.0 mi Calm Calm - N/A   Clear
2:52 AM 36.0 °F 33.3 °F 35.1 °F 97% 29.67 in 10.0 mi SW 3.5 mph - N/A   Clear
3:52 AM 36.0 °F 33.3 °F 36.0 °F 100% 29.66 in 10.0 mi SW 3.5 mph - N/A   Partly Cloudy
4:52 AM 39.0 °F 36.8 °F 37.9 °F 96% 29.65 in 10.0 mi SW 3.5 mph - N/A   Overcast
5:52 AM 39.9 °F 37.8 °F 39.0 °F 97% 29.65 in 10.0 mi SSW 3.5 mph - N/A   Mostly Cloudy
6:52 AM 41.0 °F - 39.0 °F 93% 29.64 in 10.0 mi Calm Calm - N/A   Clear
7:52 AM 39.9 °F - 37.9 °F 93% 29.65 in 10.0 mi Calm Calm - N/A   Clear
10:52 AM 48.9 °F - 42.1 °F 77% 29.63 in 10.0 mi SSW 3.5 mph - N/A   Clear
11:52 AM 51.1 °F - 41.0 °F 68% 29.63 in 10.0 mi SSW 6.9 mph - N/A   Overcast
12:52 PM 55.0 °F - 42.1 °F 62% 29.63 in 10.0 mi SSW 10.4 mph - N/A   Scattered Clouds
1:52 PM 59.0 °F - 43.0 °F 55% 29.62 in 10.0 mi SSW 8.1 mph - N/A   Mostly Cloudy
3:52 PM 66.9 °F - 42.1 °F 40% 29.60 in 10.0 mi SSW 8.1 mph - N/A   Mostly Cloudy
4:52 PM 66.2 °F - 42.8 °F 43% 29.58 in 10.0 mi SSW 4.6 mph - N/A   Clear
5:52 PM 66.9 °F - 44.1 °F 44% 29.60 in 10.0 mi SW 4.6 mph - N/A   Clear
6:52 PM 62.1 °F - 44.1 °F 52% 29.61 in 10.0 mi West 6.9 mph - N/A   Clear
7:52 PM 57.0 °F - 41.0 °F 55% 29.63 in 10.0 mi West 6.9 mph - N/A   Clear
8:52 PM 55.0 °F - 41.0 °F 59% 29.65 in 10.0 mi WNW 5.8 mph - N/A   Clear
9:52 PM 53.1 °F - 42.1 °F 66% 29.65 in 10.0 mi SSW 3.5 mph - N/A   Clear
10:52 PM 53.1 °F - 43.0 °F 69% 29.66 in 10.0 mi SW 4.6 mph - N/A   Scattered Clouds
11:52 PM 50.0 °F - 43.0 °F 77% 29.67 in 10.0 mi Calm Calm - N/A   Overcast